カタログに戻る

STARLINK-30229

運用中通信VLEO
NORAD 57461·PAYLOAD·🇺🇸 United States

打ち上げ Jul 28, 2023 から Cape Canaveral Space Force Station

Loading…

次のパス (今後24時間)

TLE

最新Source: CelesTrak SupGP

元期: Sep 15, 2026, 01:37 UTC

1 57461C 23107E   26258.06784722  .00015824  00000+0  57303-3 0  2583
2 57461  43.0040 354.0052 0001803 268.9308  74.8665 15.27576737    10

AllMySatでSTARLINK-30229をリアルタイム追跡

Download on the App Store